Regional Weather Roundup
Issued by NWS

Home | Current Version | Previous Version | Graphics & Text | Print | Product List | Glossary On
Versions: 1 2 3 4 5 6 7 8 9 10 11 12 13 14 15 16 17 18 19 20 21 22 23 24 25 26 27 28 29 30 31 32 33 34 35 36 37 38 39 40 41 42 43 44 45 46 47 48 49 50
942
ASUS43 KMPX 030401
RWRMN
WEATHER ROUNDUP FOR MINNESOTA
NATIONAL WEATHER SERVICE TWIN CITIES/CHANHASSEN MN
1000 PM CST FRI DEC 02 2016


NOTE: "FAIR" INDICATES FEW OR NO CLOUDS BELOW 12,000 FEET WITH NO
SIGNIFICANT WEATHER AND/OR OBSTRUCTIONS TO VISIBILITY. N/A MEANS
CURRENT SKY AND/OR WEATHER CONDITIONS ARE NOT AVAILABLE.

MNZ060>063-068>070-030500-
   Twin Cities Metro

CITY           SKY/WX    TMP DP  RH WIND       PRES   REMARKS
TWIN CITIES    CLOUDY    31  23  72 SW6       30.30S WCI  25
ST PAUL        CLOUDY    31  25  78 SW7       30.31S WCI  24
CRYSTAL        CLOUDY    31  22  69 NW6       30.29S WCI  25
BLAINE         CLOUDY    32  27  80 W5        30.29S WCI  27
LAKEVILLE      CLOUDY    28  23  80 SW6       30.30S WCI  22
EDEN PRAIRIE   CLOUDY    30  23  75 SW7       30.29S WCI  23
SOUTH ST PAUL  CLOUDY    31  24  75 W8        30.30S WCI  24
LAKE ELMO      CLOUDY    32  27  80 N3        30.30S
$$
MNZ001>005-007-008-013>017-022>024-027-028-030500-
   Northwest Minnesota

CITY           SKY/WX    TMP DP  RH WIND       PRES   REMARKS
BEMIDJI        CLOUDY    24  20  83 NW3       30.25S
HALLOCK        CLOUDY    28  27  93 SE6       30.23F WCI  22
ROSEAU         CLOUDY    27  21  80 NW3       30.24F
WARROAD        CLOUDY    25  21  86 W6        30.24F WCI  18
CROOKSTON      CLOUDY    28  21  74 SW3       30.27S
FOSSTON        CLOUDY    27  18  69 W6        30.26R WCI  20
DETROIT LAKES  CLOUDY    28  21  74 CALM      30.27S
MOORHEAD       CLOUDY    27  19  74 SW5       30.30S WCI  21
PARK RAPIDS    CLOUDY    25  17  72 NW7       30.25S WCI  17
$$
MNZ006-009>011-018-025>026-030500-
   North Central Minnesota

CITY           SKY/WX    TMP DP  RH WIND       PRES   REMARKS
BAUDETTE       CLOUDY    24  21  88 W3        30.24S
FLAG ISLAND    CLOUDY    21  19  93 W7        30.24S WCI  13
WASKISH        CLOUDY    25  21  86 W3        30.24F
BIG FORK       CLOUDY    25  21  86 SW6       30.25R WCI  18
LONGVILLE      CLOUDY    25  21  86 W7        30.26S WCI  17
CRANE LAKE     CLOUDY    21  21 100 NW5       30.26S WCI  15
ORR            CLOUDY    21  19  93 CALM      30.21S
COOK           CLOUDY    23  21  93 W3        30.24S
$$
MNZ012-019>021-037-030500-
   Northeast Minnesota

CITY           SKY/WX    TMP DP  RH WIND       PRES   REMARKS
ELY            CLOUDY    27  25  93 W3        30.22R
HIBBING        CLOUDY    24  21  88 W6        30.23S WCI  17
EVELETH        CLOUDY    26  22  86 NW7       30.24S WCI  18
DULUTH HARBOR  CLOUDY    32  27  80 CALM      30.27S
TWO HARBORS    CLOUDY    32  27  80 NW3       30.21F
SILVER BAY     CLOUDY    30  27  86 NW3       30.21F
GRAND MARAIS     N/A     32  25  75 VRB5      30.24R WCI  27
G MARAIS ARPRT CLOUDY    25  19  80 NW3       30.19R
$$
MNZ029>031-032-039>041-046>048-054>057-064-030500-
   West Central Minnesota

CITY           SKY/WX    TMP DP  RH WIND       PRES   REMARKS
FERGUS FALLS   CLOUDY    27  19  74 W5        30.33S WCI  21
WHEATON        CLOUDY   N/A N/A N/A W3        30.33S
MORRIS         CLOUDY    27  21  80 NW5       30.29S WCI  21
ALEXANDRIA     CLOUDY    26  20  77 CALM      30.29R
ELBOW LAKE     CLOUDY    26  20  79 CALM      30.30S
WADENA         CLOUDY    25  18  74 W3        30.27S
GLENWOOD       CLOUDY    27  21  80 W6        30.29S WCI  20
APPLETON       CLOUDY    28  19  69 W3        30.31S
BENSON         CLOUDY    27  19  74 N6        30.31S WCI  20
ORTONVILLE     CLOUDY    27  18  69 CALM      30.31R
MADISON        CLOUDY    30  21  69 NW5       30.31S WCI  25
WILLMAR        CLOUDY    28  21  74 W5        30.31S WCI  23
$$
MNZ033>034-036-042>043-049>051-058-059-030500-
   Central Minnesota

CITY           SKY/WX    TMP DP  RH WIND       PRES   REMARKS
ST CLOUD       CLOUDY    28  23  81 CALM      30.28S
PAYNESVILLE    CLOUDY    28  23  81 W6        30.29F WCI  21
AITKIN         CLOUDY    28  21  74 NW3       30.25S
PINE RIVER     CLOUDY    25  21  86 W5        30.29S WCI  19
BRAINERD       CLOUDY    26  22  84 W5        30.27S WCI  20
STAPLES        CLOUDY    25  19  80 NW6       30.27S WCI  18
LONG PRAIRIE   CLOUDY    27  21  80 W6        30.28R WCI  20
LITTLE FALLS   CLOUDY    28  23  80 CALM      30.28R
LITCHFIELD     CLOUDY    28  23  80 CALM      30.30S
BUFFALO        CLOUDY    29  25  84 W6        30.31S WCI  23
MAPLE LAKE     CLOUDY    30  27  88 W3        30.30S
$$
MNZ037-044-045-052-053-030500-
   East Central Minnesota

CITY           SKY/WX    TMP DP  RH WIND       PRES   REMARKS
PRINCETON      CLOUDY    30  25  80 W3        30.29S
MORA           CLOUDY    28  23  80 W5        30.29S WCI  23
CAMBRIDGE      CLOUDY    30  21  69 W5        30.27S WCI  25
RUSH CITY      CLOUDY    28  23  80 CALM      30.28S
MOOSE LAKE     CLOUDY    28  23  80 W3        30.24S
HINCKLEY       CLOUDY    30  27  86 SW5       30.27S WCI  25
CLOQUET        CLOUDY    28  23  80 NW7       30.23S WCI  21
MCGREGOR       CLOUDY    28  23  80 NW6       30.26R WCI  22
$$
MNZ071>073-080-081-089-090-097-098-030500-
   Southwest Minnesota

CITY           SKY/WX    TMP DP  RH WIND       PRES   REMARKS
MONTEVIDEO     CLOUDY    27  25  93 CALM      30.32S
GRANITE FALLS  CLOUDY    30  26  84 CALM      30.33S
CANBY          CLOUDY    29  23  79 CALM      30.32S
REDWOOD FALLS  CLOUDY    29  20  69 NW6       30.31S WCI  23
OLIVIA         CLOUDY    30  21  69 NW6       30.30S WCI  24
PIPESTONE      CLOUDY    27  21  80 CALM      30.28S
WINDOM         CLOUDY    28  21  74 CALM      30.29F
JACKSON        CLOUDY    28  19  69 NW7       30.30S WCI  21
TRACY          CLOUDY    29  24  81 NW8       30.30S WCI  21
SLAYTON        CLOUDY    26  21  80 W8        30.29F WCI  18
$$
MNZ065>067-074>077-082>085-091>093-030500-
   South Central Minnesota

CITY           SKY/WX    TMP DP  RH WIND       PRES   REMARKS
NEW ULM        CLOUDY    28  23  80 W3        30.31S
ST JAMES       CLOUDY    28  25  86 CALM      30.32S
GLENCOE        CLOUDY    30  25  83 W3        30.30S
FARIBAULT      CLOUDY    28  21  74 CALM      30.31S
OWATONNA       CLOUDY    28  21  74 NW7       30.30S WCI  21
WASECA         CLOUDY    30  25  80 NW6       30.32S WCI  24
ALBERT LEA     CLOUDY    32  25  74 NW3       30.30S
$$
MNZ078>079-086>088-094>096-030500-
   Southeast Minnesota

CITY           SKY/WX    TMP DP  RH WIND       PRES   REMARKS
ROCHESTER      CLOUDY    28  23  81 W8        30.30S WCI  20
RED WING       CLOUDY    30  21  69 W7        30.30R WCI  23
STANTON        CLOUDY    31  22  71 SW7       30.30S WCI  24
DODGE CENTER   CLOUDY    27  21  80 W7        30.30S WCI  19
WINONA         CLOUDY    34  25  69 W6        30.32S WCI  29
AUSTIN         CLOUDY    28  21  74 W6        30.31R WCI  22
PRESTON        CLOUDY    27  22  79 NW7       30.30F WCI  20
$$
ABBREVIATIONS USED IN REMARKS
   TC - TEMPERATURES IN CELSIUS
  WCI - WIND CHILL INDEX
   HX - HEAT INDEX
  VSB - VISIBILITY
$$




USA.gov is the U.S. government's official web portal to all federal, state and local government web resources and services.